GLOBALSTAR M059 [-]

Last updated on July 6, 2021, 3:36 p.m. UTC

1 25944U 99058B   21186.93462917 -.00000077  00000-0  11357-3 0  9999
2 25944  52.0000 148.7458 0001236 345.3447  48.4269 11.99937663400902
UTC
Height (km)
Latitude
Longitude
Inclination
Orbital Period
UTC large
Height (km)
Speed (km/s)
/
Latitude / Longitude
Inclination (degrees)
Orbital Period (minutes)
Azimuth
Elevation
Range (km)
Doppler Factor
iOS Compass Heading
iOS Angle